Oelwein, IA

12:32 PM CDT on June 26, 2017 (GMT -0500)
Oelwein Municipal

Weather History for KOLZ - January, 2014

Change the Weather History Date:

Tuesday, January 14, 2014

  Actual Average Record
Temperature  
Mean Temperature 22 °F -  
Max Temperature 33 °F 24 °F 45 °F (1952)
Min Temperature 10 °F 6 °F -18 °F (1963)
Degree Days  
Heating Degree Days 42    
Moisture  
Dew Point 21 °F    
Average Humidity 87    
Maximum Humidity 100    
Minimum Humidity 79    
Precipitation  
Precipitation 0.05 in - - ()
Sea Level Pressure  
Sea Level Pressure 29.76 in    
Wind  
Wind Speed 22 mph (WNW)    
Max Wind Speed 41 mph    
Max Gust Speed 50 mph    
Visibility 7 miles    
Events Snow    
Averages and records for this station are not official NWS values.
T = Trace of Precipitation, MM = Missing Value Source: NWS Daily Summary

Daily Weather History Graph

Daily Weather History Graph

Search for Another Location

Airport or City:

Trip Planner

Search our weather history database for the weather conditions in past years. The results will help you decide how hot, cold, wet, or windy it might be!

Date:

Astronomy

Jan. 14, 2014 Rise Set
Actual Time 7:35 AM CST 4:58 PM CST
Civil Twilight 7:04 AM CST 5:29 PM CST
Nautical Twilight 6:29 AM CST 6:04 PM CST
Astronomical Twilight 5:55 AM CST 6:38 PM CST
Moon 4:04 PM CST (1/14) 6:10 AM CST (1/14)
Length of Visible Light 10h 25m
Length of Day
9h 22m
Waxing Gibbous, 98% of the Moon is Illuminated
Jan 14
Waxing Gibbous
Jan 15
Full
Jan 23
Last Quarter
Jan 30
New
Feb 6
First Quarter

Hourly Weather History & Observations

Time (CST) Temp. Windchill Dew Point Humidity Pressure Visibility Wind Dir Wind Speed Gust Speed Precip Events Conditions
12:15 AM 30.2 °F 19.3 °F 28.4 °F 93% 29.62 in 10.0 mi South 15.0 mph - N/A   Overcast
12:35 AM 30.2 °F 19.3 °F 28.4 °F 93% 29.60 in 10.0 mi South 15.0 mph - N/A   Mostly Cloudy
12:55 AM 30.2 °F 19.8 °F 28.4 °F 93% 29.60 in 10.0 mi South 13.8 mph - N/A   Mostly Cloudy
1:15 AM 30.2 °F 21.3 °F 28.4 °F 93% 29.60 in 10.0 mi South 10.4 mph 17.3 mph N/A   Partly Cloudy
1:35 AM 30.2 °F 20.2 °F 28.4 °F 93% 29.58 in 10.0 mi South 12.7 mph - N/A   Mostly Cloudy
1:55 AM 32.0 °F 22.1 °F 28.4 °F 87% 29.57 in 10.0 mi South 13.8 mph - N/A   Overcast
2:15 AM 32.0 °F 21.6 °F 28.4 °F 87% 29.56 in 10.0 mi South 15.0 mph - N/A   Overcast
2:35 AM 32.0 °F 21.2 °F 28.4 °F 87% 29.55 in 10.0 mi South 16.1 mph - N/A   Overcast
2:55 AM 32.0 °F 21.6 °F 28.4 °F 87% 29.53 in 10.0 mi South 15.0 mph 21.9 mph N/A   Overcast
3:15 AM 32.0 °F 21.2 °F 28.4 °F 87% 29.52 in 10.0 mi SSW 16.1 mph - N/A   Overcast
3:35 AM 32.0 °F 21.6 °F 30.2 °F 93% 29.51 in 9.0 mi SSW 15.0 mph 20.7 mph N/A   Overcast
3:55 AM 32.0 °F 20.8 °F 30.2 °F 93% 29.50 in 5.0 mi SSW 17.3 mph - N/A   Overcast
4:15 AM 32.0 °F 21.2 °F 32.0 °F 100% 29.51 in 3.0 mi SW 16.1 mph - N/A Snow Light Snow
4:35 AM 32.0 °F 20.8 °F 32.0 °F 100% 29.50 in 2.0 mi SW 17.3 mph - N/A Snow Light Snow
4:55 AM 32.0 °F 20.8 °F 32.0 °F 100% 29.50 in 2.0 mi SW 17.3 mph - N/A Snow Light Snow
5:15 AM 33.8 °F 23.2 °F 33.8 °F 100% 29.50 in 1.0 mi WSW 17.3 mph 25.3 mph N/A Snow Light Snow
5:35 AM 33.8 °F 22.5 °F 33.8 °F 100% 29.51 in 4.0 mi West 19.6 mph - N/A Snow Light Snow
5:55 AM 33.8 °F 22.2 °F 33.8 °F 100% 29.52 in 10.0 mi WNW 20.7 mph 27.6 mph 0.04 in   Overcast
6:15 AM 33.8 °F 20.5 °F 33.8 °F 100% 29.52 in 10.0 mi WNW 27.6 mph 34.5 mph N/A   Overcast
6:35 AM 33.8 °F 21.0 °F 33.8 °F 100% 29.54 in 10.0 mi WNW 25.3 mph 32.2 mph N/A   Overcast
6:55 AM 33.8 °F 18.5 °F 33.8 °F 100% 29.54 in 10.0 mi WNW 39.1 mph 46.0 mph N/A   Overcast
7:15 AM 33.8 °F 19.6 °F 32.0 °F 93% 29.56 in 10.0 mi WNW 32.2 mph 42.6 mph N/A   Overcast
7:35 AM 32.0 °F 17.0 °F 28.4 °F 87% 29.58 in 10.0 mi WNW 33.4 mph 44.9 mph N/A   Overcast
7:55 AM 30.2 °F 13.3 °F 26.6 °F 86% 29.60 in 10.0 mi NW 40.3 mph 49.5 mph 0.01 in   Overcast
8:15 AM 26.6 °F 9.8 °F 23.0 °F 86% 29.63 in - NW 32.2 mph 41.4 mph N/A   Overcast
8:35 AM 26.6 °F 8.1 °F 23.0 °F 86% 29.62 in 9.0 mi NW 41.4 mph 48.3 mph N/A   Overcast
8:55 AM 26.6 °F 9.1 °F 23.0 °F 86% 29.64 in 8.0 mi WNW 35.7 mph 48.3 mph N/A   Overcast
9:15 AM 26.6 °F 9.6 °F 23.0 °F 86% 29.66 in 7.0 mi WNW 33.4 mph 42.6 mph N/A   Overcast
9:35 AM 26.6 °F 10.0 °F 23.0 °F 86% 29.67 in 7.0 mi WNW 31.1 mph 42.6 mph N/A   Overcast
9:55 AM 26.6 °F 9.8 °F 23.0 °F 86% 29.69 in 9.0 mi WNW 32.2 mph 49.5 mph N/A   Overcast
10:15 AM 26.6 °F 9.8 °F 23.0 °F 86% 29.70 in 8.0 mi WNW 32.2 mph 43.7 mph N/A   Overcast
10:35 AM 26.6 °F 10.0 °F 21.2 °F 80% 29.70 in 10.0 mi WNW 31.1 mph 42.6 mph N/A   Overcast
10:55 AM 24.8 °F 7.6 °F 21.2 °F 86% 29.71 in 10.0 mi WNW 31.1 mph 46.0 mph N/A   Overcast
11:15 AM 24.8 °F 7.3 °F 21.2 °F 86% 29.72 in 8.0 mi WNW 32.2 mph 39.1 mph N/A   Overcast
11:35 AM 24.8 °F 8.1 °F 21.2 °F 86% 29.73 in 7.0 mi WNW 28.8 mph 38.0 mph N/A   Overcast
11:55 AM 24.8 °F 6.6 °F 21.2 °F 86% 29.72 in 4.0 mi WNW 35.7 mph 43.7 mph N/A   Mostly Cloudy
12:15 PM 24.8 °F 7.3 °F 21.2 °F 86% 29.73 in 1.8 mi WNW 32.2 mph 40.3 mph N/A   Mostly Cloudy
12:35 PM 24.8 °F 7.6 °F 21.2 °F 86% 29.74 in 0.8 mi WNW 31.1 mph 41.4 mph N/A Snow Light Snow
12:55 PM 24.8 °F 7.1 °F 21.2 °F 86% 29.75 in 0.5 mi WNW 33.4 mph 42.6 mph N/A Snow Light Snow
1:15 PM 24.8 °F 7.3 °F 21.2 °F 86% 29.76 in 1.0 mi WNW 32.2 mph 39.1 mph N/A Snow Light Snow
1:35 PM 23.0 °F 5.1 °F 21.2 °F 93% 29.76 in 0.5 mi NW 31.1 mph 39.1 mph N/A Snow Light Snow
1:55 PM 23.0 °F 5.1 °F 21.2 °F 93% 29.78 in 1.0 mi WNW 31.1 mph 36.8 mph N/A Snow Light Snow
2:15 PM 23.0 °F 5.4 °F 19.4 °F 86% 29.79 in 0.8 mi NW 29.9 mph 40.3 mph N/A Snow Light Snow
2:35 PM 23.0 °F 4.1 °F 19.4 °F 86% 29.81 in 1.5 mi NW 35.7 mph 42.6 mph N/A Snow Light Snow
2:55 PM 23.0 °F 6.6 °F 21.2 °F 93% 29.83 in 1.2 mi NW 25.3 mph 33.4 mph N/A   Overcast
3:15 PM 23.0 °F 6.3 °F 17.6 °F 80% 29.84 in 2.0 mi NW 26.5 mph 35.7 mph N/A Snow Light Snow
3:35 PM 23.0 °F 4.6 °F 17.6 °F 80% 29.86 in 3.0 mi NW 33.4 mph 41.4 mph N/A Snow Light Snow
3:55 PM 21.2 °F 3.3 °F 15.8 °F 80% 29.87 in 10.0 mi NW 28.8 mph 35.7 mph N/A   Partly Cloudy
4:15 PM 21.2 °F 3.5 °F 17.6 °F 86% 29.89 in 5.0 mi NW 27.6 mph 34.5 mph N/A   Mostly Cloudy
4:35 PM 21.2 °F 4.2 °F 15.8 °F 80% 29.90 in 2.0 mi NW 25.3 mph 36.8 mph N/A Snow Light Snow
4:55 PM 21.2 °F 5.6 °F 17.6 °F 86% 29.91 in 3.0 mi NW 20.7 mph 28.8 mph N/A Snow Light Snow
5:15 PM 19.4 °F 1.1 °F 15.8 °F 86% 29.92 in 1.2 mi NW 27.6 mph 38.0 mph N/A Snow Light Snow
5:35 PM 19.4 °F 0.5 °F 15.8 °F 86% 29.92 in 5.0 mi NW 29.9 mph 35.7 mph N/A   Overcast
5:55 PM 19.4 °F -0.0 °F 14.0 °F 80% 29.94 in 10.0 mi NW 32.2 mph - N/A   Overcast
6:15 PM 19.4 °F 0.8 °F 14.0 °F 80% 29.94 in 5.0 mi NW 28.8 mph - N/A Snow Light Snow
6:35 PM 19.4 °F 1.8 °F 14.0 °F 80% 29.96 in 10.0 mi NW 25.3 mph 33.4 mph N/A   Overcast
6:55 PM 17.6 °F -1.3 °F 14.0 °F 86% 29.97 in 7.0 mi NW 27.6 mph - N/A Snow Light Snow
7:15 PM 17.6 °F -1.3 °F 12.2 °F 79% 29.98 in 10.0 mi NW 27.6 mph 34.5 mph N/A   Overcast
7:35 PM 17.6 °F -0.6 °F 12.2 °F 79% 29.98 in 10.0 mi NW 25.3 mph 34.5 mph N/A   Overcast
7:55 PM 17.6 °F -1.9 °F 12.2 °F 79% 29.99 in 10.0 mi NW 29.9 mph 35.7 mph N/A   Overcast
8:15 PM 15.8 °F -3.1 °F 12.2 °F 86% 30.00 in 10.0 mi NW 25.3 mph 32.2 mph N/A   Overcast
8:35 PM 15.8 °F -3.4 °F 10.4 °F 79% 30.00 in 10.0 mi NW 26.5 mph 32.2 mph N/A   Overcast
8:55 PM 15.8 °F -2.7 °F 10.4 °F 79% 30.01 in 10.0 mi NW 24.2 mph - N/A Snow Light Snow
9:15 PM 15.8 °F -1.9 °F 10.4 °F 79% 30.02 in 10.0 mi NW 21.9 mph 29.9 mph N/A   Overcast
9:35 PM 14.0 °F -5.1 °F 10.4 °F 86% 30.02 in 10.0 mi NW 24.2 mph - N/A   Overcast
9:55 PM 14.0 °F -3.9 °F 8.6 °F 79% 30.02 in 10.0 mi NW 20.7 mph 27.6 mph N/A   Overcast
10:15 PM 12.2 °F -6.3 °F 8.6 °F 85% 30.03 in 10.0 mi NW 20.7 mph - N/A   Overcast
10:35 PM 12.2 °F -5.8 °F 8.6 °F 85% 30.04 in 10.0 mi NW 19.6 mph - N/A   Overcast
10:55 PM 12.2 °F -6.3 °F 8.6 °F 85% 30.04 in 10.0 mi NW 20.7 mph - N/A Snow Light Snow
11:15 PM 12.2 °F -6.3 °F 6.8 °F 79% 30.04 in 10.0 mi NW 20.7 mph - N/A   Overcast
11:35 PM 12.2 °F -5.3 °F 6.8 °F 79% 30.04 in 10.0 mi NW 18.4 mph 26.5 mph N/A   Overcast
11:55 PM 10.4 °F -7.7 °F 6.8 °F 85% 30.05 in 10.0 mi NW 18.4 mph - N/A Snow Light Snow